Regional Weather Roundup
Issued by NWS Sterling, VA

Home | Current Version | Previous Version | Text Only | Print | Product List | Glossary On
Versions: 1 2 3 4 5 6 7 8 9 10 11 12 13 14 15 16 17 18 19 20 21 22 23 24 25 26 27 28 29 30 31 32 33 34 35 36 37 38 39 40 41 42 43 44 45 46 47 48 49 50
000
ASUS41 KLWX 300711
RWRLWX

REGIONAL WEATHER ROUNDUP
NATIONAL WEATHER SERVICE BALTIMORE MD/WASHINGTON DC
300 AM EDT SUN APR 30 2017

Note: "FAIR" indicates few or no clouds below 12,000 feet
with no significant weather and/or obstructions to visibility.
 TC=TEMPERATURE CELSIUS

 * =Non NWS site. Station does not report precipitation (e.g. rain,
    snow, etc.), thunder, or fog.

DCZ001-MDZ009-015-VAZ040>042-051-053>054-300800-
WASHINGTON METRO

CITY           SKY/WX    TMP DP  RH WIND       PRES   REMARKS
WASHINGTON NAT CLEAR     75  72  90 S7        30.06F
DULLES         PTCLDY    73  69  87 S3        30.06S
ANDREWS AFB    CLEAR     73  69  88 S6        30.06F
FT BELVOIR     CLEAR     68  68 100 CALM      30.06S FOG
QUANTICO       CLEAR     72  71  97 S9        30.07S
COLLEGE PARK*  CLEAR     70  68  93 CALM      30.06S
LEESBURG*      CLEAR     72  68  88 NE10      30.08S
MANASSAS*        N/A     74  70  87 S5        30.06F

$$

MDZ006>007-011-014-300800-
BALTIMORE METRO

CITY           SKY/WX    TMP DP  RH WIND       PRES   REMARKS
BWI AIRPORT    PTCLDY    70  67  90 E8        30.07S
MD SCIENCE CTR   N/A     76  64  66 MISG      30.07F
MARTIN STATE   PTCLDY    72  68  88 NE3       30.09S
ANNAPOLIS      CLEAR     70  70 100 CALM      30.06S FOG
FORT MEADE*    CLEAR     68  66  94 CALM      30.09S

$$

MDZ012-015-019>023-300800-
MARYLAND EASTERN SHORE

CITY           SKY/WX    TMP DP  RH WIND       PRES   REMARKS
OCEAN CITY     CLEAR     73  70  90 W5        30.10R
SALISBURY      CLEAR     74  71  91 SW3       30.08S
BAY BRIDGE AP* CLEAR     70  68  94 N3        30.07S FOG
CAMBRIDGE*       N/A     72  70  94 CALM      30.08S
EASTON*        CLEAR     74  70  86 S3        30.11S

$$

MDZ017>025-300800-
SOUTHERN MARYLAND

CITY           SKY/WX    TMP DP  RH WIND       PRES   REMARKS
PATUXENT RIVER CLEAR     77  72  84 SW14      30.07S
ST INIGOES     CLEAR     75  69  81 CALM      30.07S
LEONARDTOWN*   CLEAR     75  68  78 SW7       30.09S

$$

MDZ003>005-300800-
NORTH CENTRAL MARYLAND

CITY           SKY/WX    TMP DP  RH WIND       PRES   REMARKS
FREDERICK*     PTCLDY    70  70 100 N7        30.11R
HAGERSTOWN APT PTCLDY    68  61  78 N5        30.09R
WESTMINSTER*   CLEAR     70  63  78 NE6       30.10S

$$

MDZ501>502-300800-
WESTERN MARYLAND

CITY           SKY/WX    TMP DP  RH WIND       PRES   REMARKS
OAKLAND*       CLEAR     63  55  77 SE8       30.13F
CUMBERLAND*    PTCLDY    64  63  94 CALM      30.11S

$$

VAZ025>031-300800-
SHENANDOAH VALLEY

CITY           SKY/WX    TMP DP  RH WIND       PRES   REMARKS
WINCHESTER*    CLEAR     64  61  88 CALM      30.07F
FRONT ROYAL*   CLEAR     66  66 100 CALM      30.06S
LURAY*         CLEAR     70  68  94 SW5       30.08S
NEW MARKET*    CLEAR     69  65  89 W3        30.07F
STAUNTON*      CLEAR     65  64  96 CALM      30.12S FOG
WAYNESBORO*    CLEAR     69  68  98 CALM      30.11F

$$

WVZ021-048>050-054>055-300800-
EASTERN WEST VIRGINIA PANHANDLE

CITY           SKY/WX    TMP DP  RH WIND       PRES   REMARKS
MARTINSBURG    PTCLDY    69  60  73 N8        30.06F
PETERSBURG*    CLEAR     61  60  97 CALM      30.08F FOG

$$

VAZ036>039-050-300800-
CENTRAL FOOTHILLS

CITY           SKY/WX    TMP DP  RH WIND       PRES   REMARKS
CHARLOTTESVILL CLEAR     73  69  87 CALM      30.08S
CULPEPER*      CLEAR     73  71  95 CALM      30.08S
ORANGE*        PTCLDY    68  68 100 CALM      30.08S FOG
GORDONSVILLE*  FOG       69  69 100 CALM      30.07F VSB 1/2
WARRENTON*     CLEAR     75  68  80 SW3       30.07S

$$

VAZ055>057-300800-
NORTH AND CENTRAL PIEDMONT

CITY           SKY/WX    TMP DP  RH WIND       PRES   REMARKS
FREDERICKSBRG* CLEAR     74  71  91 S7        30.06S
STAFFORD*      CLEAR     72  71  98 CALM      30.11S

$$

NCZ024-NYZ072-PAZ021-071-VAZ022-071-300800-
OTHER REGIONAL OBSERVATIONS

CITY           SKY/WX    TMP DP  RH WIND       PRES   REMARKS
NEW YORK CITY  CLOUDY    65  44  46 VRB5      30.16R
PHILADELPHIA   PTCLDY    68  57  68 NE10      30.12S
PITTSBURGH     CLOUDY    58  57  97 NE5       30.04F
ROANOKE        PTCLDY    73  65  75 CALM      30.13F
RICHMOND       PTCLDY    71  69  93 S7        30.10S
RALEIGH        CLOUDY    73  70  90 SW8       30.16S

$$

ANZ530>537-300800-
MARINE OBSERVATIONS

STATION/POSITION TIME  TEMP    WIND        PRES
                       AIR SEA DIR/SP/G
                 (UTC) (F)     (DEG/KT/KT) (MB)
THOMAS PT LIGHT  0700   74 62  180/ 11/ 12   N/A
BALT KEY BRIDGE  0648           70/  3/  4 1018.5S
COVE POINT       0648          250/ 10/ 15 1018.8S
LEWISETTA        0648      71  240/  9/ 11 1018.3F
SOLOMONS ISLAND  0618   75 63  230/ 12/ 14   N/A
PINEY POINT      0648          250/  7/  8   N/A

$$




USA.gov is the U.S. government's official web portal to all federal, state and local government web resources and services.